カタログに戻る

STARLINK-6274

運用中通信VLEO
NORAD 56776·PAYLOAD·🇺🇸 United States

打ち上げ May 31, 2023 から Vandenberg Space Force Base

Loading…

次のパス (今後24時間)

TLE

最新Source: CelesTrak SupGP

元期: Sep 14, 2026, 22:00 UTC

1 56776C 23078K   26257.91715278  .00692480  00000+0  55154-1 0  2579
2 56776  70.0006 207.5216 0002969 267.8474  88.9716 14.99939824    11

AllMySatでSTARLINK-6274をリアルタイム追跡

Download on the App Store